Location: Aulus
(42.7909°N, 1.3399°E)
Time: 19:26:42
(UTC+00:00)

Cosmos 1842 Rocket - Pass Details

Date: 19 May 2025
Orbit: 601 x 626 km, 82.5° (Epoch: 23 June)

Event Time Altitude Azimuth Distance (km) Brightness Sun altitude
Exits shadow 23:02:53 54° 303° (WNW) 732 4.0 -26.2°
Drops below altitude 10° 23:06:46 10° 360° (N) 1,953 7.1 -26.4°
Sets 23:09:01 0° 5° (N) 2,861 8.2 -26.5°
